owner,sensor,date,latitude,longitude,vertical_datum,mass_concentration_of_oxygen_in_sea_water,qcFlag 
NERRS,ioos:station:NOAA.NERRS:rkblhwq:1,2019-08-01T01:45:00Z,26.0257,-81.7332,0.77,3.5,11111222 
NERRS,ioos:station:NOAA.NERRS:rkblhwq:1,2019-08-01T02:45:00Z,26.0257,-81.7332,0.86,3.6,11111222 
NERRS,ioos:station:NOAA.NERRS:rkblhwq:1,2019-08-01T03:45:00Z,26.0257,-81.7332,1.02,3.8,11111222 
NERRS,ioos:station:NOAA.NERRS:rkblhwq:1,2019-08-01T04:45:00Z,26.0257,-81.7332,1.19,4.0,11111222 
NERRS,ioos:station:NOAA.NERRS:rkblhwq:1,2019-08-01T05:45:00Z,26.0257,-81.7332,1.34,3.9,11111222 
NERRS,ioos:station:NOAA.NERRS:rkblhwq:1,2019-08-01T06:45:00Z,26.0257,-81.7332,1.42,3.6,11111222 
NERRS,ioos:station:NOAA.NERRS:rkblhwq:1,2019-08-01T07:45:00Z,26.0257,-81.7332,1.49,3.8,11111222 
NERRS,ioos:station:NOAA.NERRS:rkblhwq:1,2019-08-01T08:45:00Z,26.0257,-81.7332,1.5,3.4,11111222 
NERRS,ioos:station:NOAA.NERRS:rkblhwq:1,2019-08-01T09:45:00Z,26.0257,-81.7332,1.38,3.6,11111222 
NERRS,ioos:station:NOAA.NERRS:rkblhwq:1,2019-08-01T10:45:00Z,26.0257,-81.7332,1.24,3.4,11111222 
NERRS,ioos:station:NOAA.NERRS:rkblhwq:1,2019-08-01T11:45:00Z,26.0257,-81.7332,1.11,3.0,11111222 
NERRS,ioos:station:NOAA.NERRS:rkblhwq:1,2019-08-01T13:45:00Z,26.0257,-81.7332,1.2,3.2,11111222 
NERRS,ioos:station:NOAA.NERRS:rkblhwq:1,2019-08-01T14:45:00Z,26.0257,-81.7332,1.38,3.4,11111222 
NERRS,ioos:station:NOAA.NERRS:rkblhwq:1,2019-08-01T15:45:00Z,26.0257,-81.7332,1.56,3.9,11111222 
NERRS,ioos:station:NOAA.NERRS:rkblhwq:1,2019-08-01T16:45:00Z,26.0257,-81.7332,1.7,4.2,11111222 
NERRS,ioos:station:NOAA.NERRS:rkblhwq:1,2019-08-01T17:45:00Z,26.0257,-81.7332,1.79,4.7,11111222 
NERRS,ioos:station:NOAA.NERRS:rkblhwq:1,2019-08-01T18:45:00Z,26.0257,-81.7332,1.84,4.7,11111222 
NERRS,ioos:station:NOAA.NERRS:rkblhwq:1,2019-08-01T19:45:00Z,26.0257,-81.7332,1.77,4.7,11111222 
NERRS,ioos:station:NOAA.NERRS:rkblhwq:1,2019-08-01T20:45:00Z,26.0257,-81.7332,1.64,4.8,11111222 
NERRS,ioos:station:NOAA.NERRS:rkblhwq:1,2019-08-01T21:45:00Z,26.0257,-81.7332,1.47,4.5,11111222 
NERRS,ioos:station:NOAA.NERRS:rkblhwq:1,2019-08-01T22:45:00Z,26.0257,-81.7332,1.28,4.0,11111222 
NERRS,ioos:station:NOAA.NERRS:rkblhwq:1,2019-08-01T23:45:00Z,26.0257,-81.7332,1.1,3.7,11111222 
NERRS,ioos:station:NOAA.NERRS:rkblhwq:1,2019-08-02T01:45:00Z,26.0257,-81.7332,0.83,3.3,11111222 
NERRS,ioos:station:NOAA.NERRS:rkblhwq:1,2019-08-02T02:45:00Z,26.0257,-81.7332,0.83,2.8,11111222 
NERRS,ioos:station:NOAA.NERRS:rkblhwq:1,2019-08-02T03:45:00Z,26.0257,-81.7332,0.95,3.8,11111222 
NERRS,ioos:station:NOAA.NERRS:rkblhwq:1,2019-08-02T04:45:00Z,26.0257,-81.7332,1.11,3.6,11111222 
NERRS,ioos:station:NOAA.NERRS:rkblhwq:1,2019-08-02T05:45:00Z,26.0257,-81.7332,1.3,3.9,11111222 
NERRS,ioos:station:NOAA.NERRS:rkblhwq:1,2019-08-02T06:45:00Z,26.0257,-81.7332,1.48,4.1,11111222 
NERRS,ioos:station:NOAA.NERRS:rkblhwq:1,2019-08-02T07:45:00Z,26.0257,-81.7332,1.6,3.9,11111222 
NERRS,ioos:station:NOAA.NERRS:rkblhwq:1,2019-08-02T08:45:00Z,26.0257,-81.7332,1.59,3.6,11111222 
NERRS,ioos:station:NOAA.NERRS:rkblhwq:1,2019-08-02T09:45:00Z,26.0257,-81.7332,1.48,3.8,11111222 
NERRS,ioos:station:NOAA.NERRS:rkblhwq:1,2019-08-02T10:45:00Z,26.0257,-81.7332,1.35,3.6,11111222 
NERRS,ioos:station:NOAA.NERRS:rkblhwq:1,2019-08-02T12:45:00Z,26.0257,-81.7332,1.19,2.9,11111222 
NERRS,ioos:station:NOAA.NERRS:rkblhwq:1,2019-08-02T13:45:00Z,26.0257,-81.7332,1.24,3.0,11111222 
NERRS,ioos:station:NOAA.NERRS:rkblhwq:1,2019-08-02T14:45:00Z,26.0257,-81.7332,1.4,3.7,11111222 
NERRS,ioos:station:NOAA.NERRS:rkblhwq:1,2019-08-02T15:45:00Z,26.0257,-81.7332,1.59,3.7,11111222 
NERRS,ioos:station:NOAA.NERRS:rkblhwq:1,2019-08-02T16:45:00Z,26.0257,-81.7332,1.75,4.0,11111222 
NERRS,ioos:station:NOAA.NERRS:rkblhwq:1,2019-08-02T17:45:00Z,26.0257,-81.7332,1.82,4.2,11111222 
NERRS,ioos:station:NOAA.NERRS:rkblhwq:1,2019-08-02T18:45:00Z,26.0257,-81.7332,1.89,4.4,11111222 
NERRS,ioos:station:NOAA.NERRS:rkblhwq:1,2019-08-02T19:45:00Z,26.0257,-81.7332,1.91,4.7,11111222 
NERRS,ioos:station:NOAA.NERRS:rkblhwq:1,2019-08-02T20:45:00Z,26.0257,-81.7332,1.83,4.5,11111222 
NERRS,ioos:station:NOAA.NERRS:rkblhwq:1,2019-08-02T21:45:00Z,26.0257,-81.7332,1.72,4.0,11111222 
NERRS,ioos:station:NOAA.NERRS:rkblhwq:1,2019-08-02T22:45:00Z,26.0257,-81.7332,1.58,3.6,11111222 
NERRS,ioos:station:NOAA.NERRS:rkblhwq:1,2019-08-02T23:45:00Z,26.0257,-81.7332,1.4,3.4,11111222 
NERRS,ioos:station:NOAA.NERRS:rkblhwq:1,2019-08-03T00:45:00Z,26.0257,-81.7332,1.21,3.3,11111222 
NERRS,ioos:station:NOAA.NERRS:rkblhwq:1,2019-08-03T01:45:00Z,26.0257,-81.7332,1.05,3.0,11111222 
NERRS,ioos:station:NOAA.NERRS:rkblhwq:1,2019-08-03T02:45:00Z,26.0257,-81.7332,0.94,3.0,11111222 
NERRS,ioos:station:NOAA.NERRS:rkblhwq:1,2019-08-03T04:45:00Z,26.0257,-81.7332,1.18,3.2,11111222 
NERRS,ioos:station:NOAA.NERRS:rkblhwq:1,2019-08-03T05:45:00Z,26.0257,-81.7332,1.36,3.2,11111222 
NERRS,ioos:station:NOAA.NERRS:rkblhwq:1,2019-08-03T06:45:00Z,26.0257,-81.7332,1.51,3.3,11111222 
NERRS,ioos:station:NOAA.NERRS:rkblhwq:1,2019-08-03T08:45:00Z,26.0257,-81.7332,1.7,3.1,11111222 
NERRS,ioos:station:NOAA.NERRS:rkblhwq:1,2019-08-03T10:30:00Z,26.0257,-81.7332,1.56,2.9,11111222 
NERRS,ioos:station:NOAA.NERRS:rkblhwq:1,2019-08-03T11:45:00Z,26.0257,-81.7332,1.42,2.9,11111222 
NERRS,ioos:station:NOAA.NERRS:rkblhwq:1,2019-08-03T12:45:00Z,26.0257,-81.7332,1.3,2.7,11111222 
NERRS,ioos:station:NOAA.NERRS:rkblhwq:1,2019-08-03T13:45:00Z,26.0257,-81.7332,1.24,2.5,11111222 
NERRS,ioos:station:NOAA.NERRS:rkblhwq:1,2019-08-03T14:45:00Z,26.0257,-81.7332,1.29,2.3,11111222 
NERRS,ioos:station:NOAA.NERRS:rkblhwq:1,2019-08-03T15:45:00Z,26.0257,-81.7332,1.43,4.0,11111222 
NERRS,ioos:station:NOAA.NERRS:rkblhwq:1,2019-08-03T16:45:00Z,26.0257,-81.7332,1.59,4.2,11111222 
NERRS,ioos:station:NOAA.NERRS:rkblhwq:1,2019-08-03T17:45:00Z,26.0257,-81.7332,1.72,4.6,11111222 
NERRS,ioos:station:NOAA.NERRS:rkblhwq:1,2019-08-03T18:45:00Z,26.0257,-81.7332,1.81,5.1,11111222 
NERRS,ioos:station:NOAA.NERRS:rkblhwq:1,2019-08-03T19:45:00Z,26.0257,-81.7332,1.87,5.4,11111222 
NERRS,ioos:station:NOAA.NERRS:rkblhwq:1,2019-08-03T20:45:00Z,26.0257,-81.7332,1.86,5.4,11111222 
NERRS,ioos:station:NOAA.NERRS:rkblhwq:1,2019-08-03T21:45:00Z,26.0257,-81.7332,1.78,5.5,11111222 
NERRS,ioos:station:NOAA.NERRS:rkblhwq:1,2019-08-03T22:45:00Z,26.0257,-81.7332,1.67,5.3,11111222 
NERRS,ioos:station:NOAA.NERRS:rkblhwq:1,2019-08-03T23:45:00Z,26.0257,-81.7332,1.52,5.2,11111222 
NERRS,ioos:station:NOAA.NERRS:rkblhwq:1,2019-08-04T00:45:00Z,26.0257,-81.7332,1.34,4.9,11111222 
NERRS,ioos:station:NOAA.NERRS:rkblhwq:1,2019-08-04T01:45:00Z,26.0257,-81.7332,1.16,4.2,11111222 
NERRS,ioos:station:NOAA.NERRS:rkblhwq:1,2019-08-04T02:45:00Z,26.0257,-81.7332,1.02,4.1,11111222 
NERRS,ioos:station:NOAA.NERRS:rkblhwq:1,2019-08-04T03:45:00Z,26.0257,-81.7332,0.96,3.2,11111222 
NERRS,ioos:station:NOAA.NERRS:rkblhwq:1,2019-08-04T04:45:00Z,26.0257,-81.7332,1.1,4.3,11111222 
NERRS,ioos:station:NOAA.NERRS:rkblhwq:1,2019-08-04T05:45:00Z,26.0257,-81.7332,1.27,4.2,11111222 
NERRS,ioos:station:NOAA.NERRS:rkblhwq:1,2019-08-04T06:45:00Z,26.0257,-81.7332,1.45,4.3,11111222 
NERRS,ioos:station:NOAA.NERRS:rkblhwq:1,2019-08-04T07:45:00Z,26.0257,-81.7332,1.62,4.4,11111222 
NERRS,ioos:station:NOAA.NERRS:rkblhwq:1,2019-08-04T08:45:00Z,26.0257,-81.7332,1.71,4.4,11111222 
NERRS,ioos:station:NOAA.NERRS:rkblhwq:1,2019-08-04T09:45:00Z,26.0257,-81.7332,1.73,4.2,11111222 
NERRS,ioos:station:NOAA.NERRS:rkblhwq:1,2019-08-04T10:45:00Z,26.0257,-81.7332,1.66,3.9,11111222 
NERRS,ioos:station:NOAA.NERRS:rkblhwq:1,2019-08-04T11:45:00Z,26.0257,-81.7332,1.55,3.6,11111222 
NERRS,ioos:station:NOAA.NERRS:rkblhwq:1,2019-08-04T12:45:00Z,26.0257,-81.7332,1.42,3.4,11111222 
NERRS,ioos:station:NOAA.NERRS:rkblhwq:1,2019-08-04T13:45:00Z,26.0257,-81.7332,1.28,3.1,11111222 
NERRS,ioos:station:NOAA.NERRS:rkblhwq:1,2019-08-04T14:45:00Z,26.0257,-81.7332,1.18,3.1,11111222 
NERRS,ioos:station:NOAA.NERRS:rkblhwq:1,2019-08-04T15:45:00Z,26.0257,-81.7332,1.22,2.9,11111222 
NERRS,ioos:station:NOAA.NERRS:rkblhwq:1,2019-08-04T16:45:00Z,26.0257,-81.7332,1.37,4.3,11111222 
NERRS,ioos:station:NOAA.NERRS:rkblhwq:1,2019-08-04T17:45:00Z,26.0257,-81.7332,1.49,4.0,11111222 
NERRS,ioos:station:NOAA.NERRS:rkblhwq:1,2019-08-04T18:45:00Z,26.0257,-81.7332,1.62,4.3,11111222 
NERRS,ioos:station:NOAA.NERRS:rkblhwq:1,2019-08-04T19:45:00Z,26.0257,-81.7332,1.72,4.4,11111222 
NERRS,ioos:station:NOAA.NERRS:rkblhwq:1,2019-08-04T20:45:00Z,26.0257,-81.7332,1.77,4.5,11111222 
NERRS,ioos:station:NOAA.NERRS:rkblhwq:1,2019-08-04T21:45:00Z,26.0257,-81.7332,1.76,3.2,11111222 
NERRS,ioos:station:NOAA.NERRS:rkblhwq:1,2019-08-04T22:45:00Z,26.0257,-81.7332,1.68,3.9,11111222 
NERRS,ioos:station:NOAA.NERRS:rkblhwq:1,2019-08-04T23:45:00Z,26.0257,-81.7332,1.55,4.2,11111222 
NERRS,ioos:station:NOAA.NERRS:rkblhwq:1,2019-08-05T00:45:00Z,26.0257,-81.7332,1.39,3.9,11111222 
NERRS,ioos:station:NOAA.NERRS:rkblhwq:1,2019-08-05T01:45:00Z,26.0257,-81.7332,1.23,3.6,11111222 
NERRS,ioos:station:NOAA.NERRS:rkblhwq:1,2019-08-05T02:45:00Z,26.0257,-81.7332,1.08,2.9,11111222 
NERRS,ioos:station:NOAA.NERRS:rkblhwq:1,2019-08-05T03:45:00Z,26.0257,-81.7332,0.98,2.6,11111222 
NERRS,ioos:station:NOAA.NERRS:rkblhwq:1,2019-08-05T04:45:00Z,26.0257,-81.7332,1.01,2.6,11111222 
NERRS,ioos:station:NOAA.NERRS:rkblhwq:1,2019-08-05T05:45:00Z,26.0257,-81.7332,1.18,3.5,11111222 
NERRS,ioos:station:NOAA.NERRS:rkblhwq:1,2019-08-05T06:45:00Z,26.0257,-81.7332,1.36,3.5,11111222 
NERRS,ioos:station:NOAA.NERRS:rkblhwq:1,2019-08-05T08:45:00Z,26.0257,-81.7332,1.68,3.7,11111222 
NERRS,ioos:station:NOAA.NERRS:rkblhwq:1,2019-08-05T09:45:00Z,26.0257,-81.7332,1.75,3.8,11111222 
NERRS,ioos:station:NOAA.NERRS:rkblhwq:1,2019-08-05T10:45:00Z,26.0257,-81.7332,1.71,3.6,11111222 
NERRS,ioos:station:NOAA.NERRS:rkblhwq:1,2019-08-05T11:45:00Z,26.0257,-81.7332,1.62,3.1,11111222 
NERRS,ioos:station:NOAA.NERRS:rkblhwq:1,2019-08-05T12:45:00Z,26.0257,-81.7332,1.49,3.1,11111222 
NERRS,ioos:station:NOAA.NERRS:rkblhwq:1,2019-08-05T13:45:00Z,26.0257,-81.7332,1.35,3.3,11111222 
NERRS,ioos:station:NOAA.NERRS:rkblhwq:1,2019-08-05T14:45:00Z,26.0257,-81.7332,1.22,2.9,11111222 
NERRS,ioos:station:NOAA.NERRS:rkblhwq:1,2019-08-05T15:45:00Z,26.0257,-81.7332,1.13,2.9,11111222 
NERRS,ioos:station:NOAA.NERRS:rkblhwq:1,2019-08-05T16:45:00Z,26.0257,-81.7332,1.15,2.5,11111222 
NERRS,ioos:station:NOAA.NERRS:rkblhwq:1,2019-08-05T17:45:00Z,26.0257,-81.7332,1.28,4.2,11111222 
NERRS,ioos:station:NOAA.NERRS:rkblhwq:1,2019-08-05T18:45:00Z,26.0257,-81.7332,1.42,4.0,11111222 
NERRS,ioos:station:NOAA.NERRS:rkblhwq:1,2019-08-05T19:45:00Z,26.0257,-81.7332,1.54,4.2,11111222 
NERRS,ioos:station:NOAA.NERRS:rkblhwq:1,2019-08-05T20:45:00Z,26.0257,-81.7332,1.63,4.6,11111222 
NERRS,ioos:station:NOAA.NERRS:rkblhwq:1,2019-08-05T21:45:00Z,26.0257,-81.7332,1.68,4.6,11111222 
NERRS,ioos:station:NOAA.NERRS:rkblhwq:1,2019-08-05T22:45:00Z,26.0257,-81.7332,1.66,3.9,11111222 
NERRS,ioos:station:NOAA.NERRS:rkblhwq:1,2019-08-05T23:45:00Z,26.0257,-81.7332,1.56,3.7,11111222 
NERRS,ioos:station:NOAA.NERRS:rkblhwq:1,2019-08-06T00:45:00Z,26.0257,-81.7332,1.44,3.7,11111222 
NERRS,ioos:station:NOAA.NERRS:rkblhwq:1,2019-08-06T01:45:00Z,26.0257,-81.7332,1.31,3.7,11111222 
NERRS,ioos:station:NOAA.NERRS:rkblhwq:1,2019-08-06T02:45:00Z,26.0257,-81.7332,1.17,3.4,11111222 
NERRS,ioos:station:NOAA.NERRS:rkblhwq:1,2019-08-06T03:45:00Z,26.0257,-81.7332,1.05,3.1,11111222 
NERRS,ioos:station:NOAA.NERRS:rkblhwq:1,2019-08-06T04:45:00Z,26.0257,-81.7332,1.02,1.9,11111222 
NERRS,ioos:station:NOAA.NERRS:rkblhwq:1,2019-08-06T06:45:00Z,26.0257,-81.7332,1.29,3.5,11111222 
NERRS,ioos:station:NOAA.NERRS:rkblhwq:1,2019-08-06T07:45:00Z,26.0257,-81.7332,1.45,3.5,11111222 
NERRS,ioos:station:NOAA.NERRS:rkblhwq:1,2019-08-06T08:45:00Z,26.0257,-81.7332,1.6,3.7,11111222 
NERRS,ioos:station:NOAA.NERRS:rkblhwq:1,2019-08-06T09:45:00Z,26.0257,-81.7332,1.69,3.6,11111222 
NERRS,ioos:station:NOAA.NERRS:rkblhwq:1,2019-08-06T10:45:00Z,26.0257,-81.7332,1.72,3.4,11111222 
NERRS,ioos:station:NOAA.NERRS:rkblhwq:1,2019-08-06T11:45:00Z,26.0257,-81.7332,1.66,3.3,11111222 
NERRS,ioos:station:NOAA.NERRS:rkblhwq:1,2019-08-06T12:45:00Z,26.0257,-81.7332,1.56,3.1,11111222 
NERRS,ioos:station:NOAA.NERRS:rkblhwq:1,2019-08-06T13:45:00Z,26.0257,-81.7332,1.43,3.1,11111222 
NERRS,ioos:station:NOAA.NERRS:rkblhwq:1,2019-08-06T14:45:00Z,26.0257,-81.7332,1.31,3.0,11111222 
NERRS,ioos:station:NOAA.NERRS:rkblhwq:1,2019-08-06T15:45:00Z,26.0257,-81.7332,1.16,2.8,11111222 
NERRS,ioos:station:NOAA.NERRS:rkblhwq:1,2019-08-06T16:45:00Z,26.0257,-81.7332,1.02,3.3,11111222 
NERRS,ioos:station:NOAA.NERRS:rkblhwq:1,2019-08-06T17:45:00Z,26.0257,-81.7332,1.02,3.1,11111222 
NERRS,ioos:station:NOAA.NERRS:rkblhwq:1,2019-08-06T18:45:00Z,26.0257,-81.7332,1.13,4.9,11111222 
NERRS,ioos:station:NOAA.NERRS:rkblhwq:1,2019-08-06T19:45:00Z,26.0257,-81.7332,1.26,5.3,11111222 
NERRS,ioos:station:NOAA.NERRS:rkblhwq:1,2019-08-06T20:45:00Z,26.0257,-81.7332,1.39,5.7,11111222 
NERRS,ioos:station:NOAA.NERRS:rkblhwq:1,2019-08-06T21:45:00Z,26.0257,-81.7332,1.48,6.2,11111222 
NERRS,ioos:station:NOAA.NERRS:rkblhwq:1,2019-08-06T22:45:00Z,26.0257,-81.7332,1.54,5.9,11111222 
NERRS,ioos:station:NOAA.NERRS:rkblhwq:1,2019-08-07T00:45:00Z,26.0257,-81.7332,1.45,5.8,11111222 
NERRS,ioos:station:NOAA.NERRS:rkblhwq:1,2019-08-07T01:45:00Z,26.0257,-81.7332,1.33,4.8,11111222 
NERRS,ioos:station:NOAA.NERRS:rkblhwq:1,2019-08-07T02:45:00Z,26.0257,-81.7332,1.2,5.2,11111222 
NERRS,ioos:station:NOAA.NERRS:rkblhwq:1,2019-08-07T03:45:00Z,26.0257,-81.7332,1.08,5.1,11111222 
NERRS,ioos:station:NOAA.NERRS:rkblhwq:1,2019-08-07T04:45:00Z,26.0257,-81.7332,1.01,5.0,11111222 
NERRS,ioos:station:NOAA.NERRS:rkblhwq:1,2019-08-07T05:45:00Z,26.0257,-81.7332,1.03,4.2,11111222 
NERRS,ioos:station:NOAA.NERRS:rkblhwq:1,2019-08-07T07:45:00Z,26.0257,-81.7332,1.3,4.8,11111222 
NERRS,ioos:station:NOAA.NERRS:rkblhwq:1,2019-08-07T08:45:00Z,26.0257,-81.7332,1.44,4.7,11111222 
NERRS,ioos:station:NOAA.NERRS:rkblhwq:1,2019-08-07T10:45:00Z,26.0257,-81.7332,1.63,4.5,11111222 
NERRS,ioos:station:NOAA.NERRS:rkblhwq:1,2019-08-07T11:45:00Z,26.0257,-81.7332,1.65,4.1,11111222 
NERRS,ioos:station:NOAA.NERRS:rkblhwq:1,2019-08-07T12:45:00Z,26.0257,-81.7332,1.59,4.0,11111222 
NERRS,ioos:station:NOAA.NERRS:rkblhwq:1,2019-08-07T13:45:00Z,26.0257,-81.7332,1.48,4.0,11111222 
NERRS,ioos:station:NOAA.NERRS:rkblhwq:1,2019-08-07T14:45:00Z,26.0257,-81.7332,1.34,4.0,11111222 
NERRS,ioos:station:NOAA.NERRS:rkblhwq:1,2019-08-07T15:45:00Z,26.0257,-81.7332,1.19,4.3,11111222 
NERRS,ioos:station:NOAA.NERRS:rkblhwq:1,2019-08-07T16:45:00Z,26.0257,-81.7332,1.05,4.9,11111222 
NERRS,ioos:station:NOAA.NERRS:rkblhwq:1,2019-08-07T17:45:00Z,26.0257,-81.7332,0.94,5.5,11111222 
NERRS,ioos:station:NOAA.NERRS:rkblhwq:1,2019-08-07T18:45:00Z,26.0257,-81.7332,0.91,5.2,11111222 
NERRS,ioos:station:NOAA.NERRS:rkblhwq:1,2019-08-07T19:45:00Z,26.0257,-81.7332,0.99,6.2,11111222 
NERRS,ioos:station:NOAA.NERRS:rkblhwq:1,2019-08-07T20:45:00Z,26.0257,-81.7332,1.12,7.1,11111222 
NERRS,ioos:station:NOAA.NERRS:rkblhwq:1,2019-08-07T21:45:00Z,26.0257,-81.7332,1.23,7.2,11111222 
NERRS,ioos:station:NOAA.NERRS:rkblhwq:1,2019-08-07T22:45:00Z,26.0257,-81.7332,1.34,7.4,11111222 
NERRS,ioos:station:NOAA.NERRS:rkblhwq:1,2019-08-07T23:45:00Z,26.0257,-81.7332,1.41,7.2,11111222 
NERRS,ioos:station:NOAA.NERRS:rkblhwq:1,2019-08-08T00:45:00Z,26.0257,-81.7332,1.45,6.7,11111222 
NERRS,ioos:station:NOAA.NERRS:rkblhwq:1,2019-08-08T01:45:00Z,26.0257,-81.7332,1.4,6.0,11111222 
NERRS,ioos:station:NOAA.NERRS:rkblhwq:1,2019-08-08T02:45:00Z,26.0257,-81.7332,1.3,6.1,11111222 
NERRS,ioos:station:NOAA.NERRS:rkblhwq:1,2019-08-08T03:45:00Z,26.0257,-81.7332,1.2,6.3,11111222 
NERRS,ioos:station:NOAA.NERRS:rkblhwq:1,2019-08-08T06:45:00Z,26.0257,-81.7332,1.13,5.0,11111222 
NERRS,ioos:station:NOAA.NERRS:rkblhwq:1,2019-08-08T07:45:00Z,26.0257,-81.7332,1.23,5.5,11111222 
NERRS,ioos:station:NOAA.NERRS:rkblhwq:1,2019-08-08T08:45:00Z,26.0257,-81.7332,1.34,5.3,11111222 
NERRS,ioos:station:NOAA.NERRS:rkblhwq:1,2019-08-08T09:45:00Z,26.0257,-81.7332,1.43,5.0,11111222 
NERRS,ioos:station:NOAA.NERRS:rkblhwq:1,2019-08-08T10:45:00Z,26.0257,-81.7332,1.53,4.6,11111222 
NERRS,ioos:station:NOAA.NERRS:rkblhwq:1,2019-08-08T11:45:00Z,26.0257,-81.7332,1.59,4.4,11111222 
NERRS,ioos:station:NOAA.NERRS:rkblhwq:1,2019-08-08T12:45:00Z,26.0257,-81.7332,1.6,4.0,11111222 
NERRS,ioos:station:NOAA.NERRS:rkblhwq:1,2019-08-08T13:45:00Z,26.0257,-81.7332,1.53,4.1,11111222 
NERRS,ioos:station:NOAA.NERRS:rkblhwq:1,2019-08-08T14:45:00Z,26.0257,-81.7332,1.41,4.1,11111222 
NERRS,ioos:station:NOAA.NERRS:rkblhwq:1,2019-08-08T15:45:00Z,26.0257,-81.7332,1.27,4.5,11111222 
NERRS,ioos:station:NOAA.NERRS:rkblhwq:1,2019-08-08T16:45:00Z,26.0257,-81.7332,1.13,4.9,11111222 
NERRS,ioos:station:NOAA.NERRS:rkblhwq:1,2019-08-08T17:45:00Z,26.0257,-81.7332,1.0,6.0,11111222 
NERRS,ioos:station:NOAA.NERRS:rkblhwq:1,2019-08-08T18:45:00Z,26.0257,-81.7332,0.88,6.8,11111222 
NERRS,ioos:station:NOAA.NERRS:rkblhwq:1,2019-08-08T19:45:00Z,26.0257,-81.7332,0.83,7.5,11111222 
NERRS,ioos:station:NOAA.NERRS:rkblhwq:1,2019-08-08T20:45:00Z,26.0257,-81.7332,0.9,6.9,11111222 
NERRS,ioos:station:NOAA.NERRS:rkblhwq:1,2019-08-08T21:45:00Z,26.0257,-81.7332,1.01,7.7,11111222 
NERRS,ioos:station:NOAA.NERRS:rkblhwq:1,2019-08-08T22:45:00Z,26.0257,-81.7332,1.12,7.8,11111222 
NERRS,ioos:station:NOAA.NERRS:rkblhwq:1,2019-08-08T23:45:00Z,26.0257,-81.7332,1.23,7.2,11111222 
NERRS,ioos:station:NOAA.NERRS:rkblhwq:1,2019-08-09T00:45:00Z,26.0257,-81.7332,1.34,7.0,11111222 
NERRS,ioos:station:NOAA.NERRS:rkblhwq:1,2019-08-09T01:45:00Z,26.0257,-81.7332,1.41,6.7,11111222 
NERRS,ioos:station:NOAA.NERRS:rkblhwq:1,2019-08-09T02:45:00Z,26.0257,-81.7332,1.4,6.6,11111222 
NERRS,ioos:station:NOAA.NERRS:rkblhwq:1,2019-08-09T03:45:00Z,26.0257,-81.7332,1.31,6.1,11111222 
NERRS,ioos:station:NOAA.NERRS:rkblhwq:1,2019-08-09T04:45:00Z,26.0257,-81.7332,1.22,6.4,11111222 
NERRS,ioos:station:NOAA.NERRS:rkblhwq:1,2019-08-09T05:45:00Z,26.0257,-81.7332,1.17,6.4,11111222 
NERRS,ioos:station:NOAA.NERRS:rkblhwq:1,2019-08-09T06:45:00Z,26.0257,-81.7332,1.14,5.5,11111222 
NERRS,ioos:station:NOAA.NERRS:rkblhwq:1,2019-08-09T07:45:00Z,26.0257,-81.7332,1.15,4.8,11111222 
NERRS,ioos:station:NOAA.NERRS:rkblhwq:1,2019-08-09T08:45:00Z,26.0257,-81.7332,1.24,5.2,11111222 
NERRS,ioos:station:NOAA.NERRS:rkblhwq:1,2019-08-09T09:45:00Z,26.0257,-81.7332,1.34,5.3,11111222 
NERRS,ioos:station:NOAA.NERRS:rkblhwq:1,2019-08-09T10:45:00Z,26.0257,-81.7332,1.43,4.3,11111222 
NERRS,ioos:station:NOAA.NERRS:rkblhwq:1,2019-08-09T11:45:00Z,26.0257,-81.7332,1.49,4.1,11111222 
NERRS,ioos:station:NOAA.NERRS:rkblhwq:1,2019-08-09T12:45:00Z,26.0257,-81.7332,1.55,3.9,11111222 
NERRS,ioos:station:NOAA.NERRS:rkblhwq:1,2019-08-09T13:45:00Z,26.0257,-81.7332,1.59,3.7,11111222 
NERRS,ioos:station:NOAA.NERRS:rkblhwq:1,2019-08-09T14:45:00Z,26.0257,-81.7332,1.54,3.8,11111222 
NERRS,ioos:station:NOAA.NERRS:rkblhwq:1,2019-08-09T15:45:00Z,26.0257,-81.7332,1.44,4.0,11111222 
NERRS,ioos:station:NOAA.NERRS:rkblhwq:1,2019-08-09T16:45:00Z,26.0257,-81.7332,1.3,5.0,11111222 
NERRS,ioos:station:NOAA.NERRS:rkblhwq:1,2019-08-09T17:45:00Z,26.0257,-81.7332,1.15,4.9,11111222 
NERRS,ioos:station:NOAA.NERRS:rkblhwq:1,2019-08-09T18:45:00Z,26.0257,-81.7332,1.01,5.4,11111222 
NERRS,ioos:station:NOAA.NERRS:rkblhwq:1,2019-08-09T19:45:00Z,26.0257,-81.7332,0.89,5.6,11111222 
NERRS,ioos:station:NOAA.NERRS:rkblhwq:1,2019-08-09T20:45:00Z,26.0257,-81.7332,0.8,5.7,11111222 
NERRS,ioos:station:NOAA.NERRS:rkblhwq:1,2019-08-09T21:45:00Z,26.0257,-81.7332,0.82,4.6,11111222 
NERRS,ioos:station:NOAA.NERRS:rkblhwq:1,2019-08-09T22:45:00Z,26.0257,-81.7332,0.94,6.4,11111222 
NERRS,ioos:station:NOAA.NERRS:rkblhwq:1,2019-08-09T23:45:00Z,26.0257,-81.7332,1.05,6.0,11111222 
NERRS,ioos:station:NOAA.NERRS:rkblhwq:1,2019-08-10T00:45:00Z,26.0257,-81.7332,1.16,5.6,11111222 
NERRS,ioos:station:NOAA.NERRS:rkblhwq:1,2019-08-10T01:45:00Z,26.0257,-81.7332,1.29,5.6,11111222 
NERRS,ioos:station:NOAA.NERRS:rkblhwq:1,2019-08-10T02:45:00Z,26.0257,-81.7332,1.38,5.4,11111222 
NERRS,ioos:station:NOAA.NERRS:rkblhwq:1,2019-08-10T03:45:00Z,26.0257,-81.7332,1.41,4.3,11111222 
NERRS,ioos:station:NOAA.NERRS:rkblhwq:1,2019-08-10T04:45:00Z,26.0257,-81.7332,1.36,4.8,11111222 
NERRS,ioos:station:NOAA.NERRS:rkblhwq:1,2019-08-10T05:45:00Z,26.0257,-81.7332,1.27,4.4,11111222 
NERRS,ioos:station:NOAA.NERRS:rkblhwq:1,2019-08-10T06:45:00Z,26.0257,-81.7332,1.2,4.1,11111222 
NERRS,ioos:station:NOAA.NERRS:rkblhwq:1,2019-08-10T07:45:00Z,26.0257,-81.7332,1.14,4.6,11111222 
NERRS,ioos:station:NOAA.NERRS:rkblhwq:1,2019-08-10T08:45:00Z,26.0257,-81.7332,1.15,3.5,11111222 
NERRS,ioos:station:NOAA.NERRS:rkblhwq:1,2019-08-10T09:45:00Z,26.0257,-81.7332,1.22,4.1,11111222 
NERRS,ioos:station:NOAA.NERRS:rkblhwq:1,2019-08-10T10:45:00Z,26.0257,-81.7332,1.33,4.3,11111222 
NERRS,ioos:station:NOAA.NERRS:rkblhwq:1,2019-08-10T11:45:00Z,26.0257,-81.7332,1.42,3.6,11111222 
NERRS,ioos:station:NOAA.NERRS:rkblhwq:1,2019-08-10T12:45:00Z,26.0257,-81.7332,1.52,3.5,11111222 
NERRS,ioos:station:NOAA.NERRS:rkblhwq:1,2019-08-10T13:45:00Z,26.0257,-81.7332,1.59,4.1,11111222 
NERRS,ioos:station:NOAA.NERRS:rkblhwq:1,2019-08-10T14:45:00Z,26.0257,-81.7332,1.61,2.7,11111222 
NERRS,ioos:station:NOAA.NERRS:rkblhwq:1,2019-08-10T15:45:00Z,26.0257,-81.7332,1.54,3.5,11111222 
NERRS,ioos:station:NOAA.NERRS:rkblhwq:1,2019-08-10T16:45:00Z,26.0257,-81.7332,1.43,4.0,11111222 
NERRS,ioos:station:NOAA.NERRS:rkblhwq:1,2019-08-10T17:45:00Z,26.0257,-81.7332,1.3,3.5,11111222 
NERRS,ioos:station:NOAA.NERRS:rkblhwq:1,2019-08-10T18:45:00Z,26.0257,-81.7332,1.15,3.2,11111222 
NERRS,ioos:station:NOAA.NERRS:rkblhwq:1,2019-08-10T19:45:00Z,26.0257,-81.7332,1.01,4.0,11111222 
NERRS,ioos:station:NOAA.NERRS:rkblhwq:1,2019-08-10T20:45:00Z,26.0257,-81.7332,0.89,3.9,11111222 
NERRS,ioos:station:NOAA.NERRS:rkblhwq:1,2019-08-10T21:45:00Z,26.0257,-81.7332,0.79,4.6,11111222 
NERRS,ioos:station:NOAA.NERRS:rkblhwq:1,2019-08-10T22:45:00Z,26.0257,-81.7332,0.8,3.5,11111222 
NERRS,ioos:station:NOAA.NERRS:rkblhwq:1,2019-08-10T23:45:00Z,26.0257,-81.7332,0.9,5.0,11111222 
NERRS,ioos:station:NOAA.NERRS:rkblhwq:1,2019-08-11T00:45:00Z,26.0257,-81.7332,1.02,4.8,11111222 
NERRS,ioos:station:NOAA.NERRS:rkblhwq:1,2019-08-11T01:45:00Z,26.0257,-81.7332,1.17,4.6,11111222 
NERRS,ioos:station:NOAA.NERRS:rkblhwq:1,2019-08-11T02:45:00Z,26.0257,-81.7332,1.29,4.5,11111222 
NERRS,ioos:station:NOAA.NERRS:rkblhwq:1,2019-08-11T03:45:00Z,26.0257,-81.7332,1.39,4.3,11111222 
NERRS,ioos:station:NOAA.NERRS:rkblhwq:1,2019-08-11T04:45:00Z,26.0257,-81.7332,1.42,3.0,11111222 
NERRS,ioos:station:NOAA.NERRS:rkblhwq:1,2019-08-11T05:45:00Z,26.0257,-81.7332,1.37,3.8,11111222 
NERRS,ioos:station:NOAA.NERRS:rkblhwq:1,2019-08-11T06:45:00Z,26.0257,-81.7332,1.3,3.2,11111222 
NERRS,ioos:station:NOAA.NERRS:rkblhwq:1,2019-08-11T07:45:00Z,26.0257,-81.7332,1.22,3.6,11111222 
NERRS,ioos:station:NOAA.NERRS:rkblhwq:1,2019-08-11T08:45:00Z,26.0257,-81.7332,1.17,3.3,11111222 
NERRS,ioos:station:NOAA.NERRS:rkblhwq:1,2019-08-11T09:45:00Z,26.0257,-81.7332,1.15,2.2,11111222 
NERRS,ioos:station:NOAA.NERRS:rkblhwq:1,2019-08-11T10:45:00Z,26.0257,-81.7332,1.23,3.3,11111222 
NERRS,ioos:station:NOAA.NERRS:rkblhwq:1,2019-08-11T11:45:00Z,26.0257,-81.7332,1.35,3.6,11111222 
NERRS,ioos:station:NOAA.NERRS:rkblhwq:1,2019-08-11T12:45:00Z,26.0257,-81.7332,1.46,3.0,11111222 
NERRS,ioos:station:NOAA.NERRS:rkblhwq:1,2019-08-11T13:45:00Z,26.0257,-81.7332,1.56,3.4,11111222 
NERRS,ioos:station:NOAA.NERRS:rkblhwq:1,2019-08-11T14:45:00Z,26.0257,-81.7332,1.64,4.1,11111222 
NERRS,ioos:station:NOAA.NERRS:rkblhwq:1,2019-08-11T15:45:00Z,26.0257,-81.7332,1.66,3.1,11111222 
NERRS,ioos:station:NOAA.NERRS:rkblhwq:1,2019-08-11T16:45:00Z,26.0257,-81.7332,1.58,3.9,11111222 
NERRS,ioos:station:NOAA.NERRS:rkblhwq:1,2019-08-11T17:45:00Z,26.0257,-81.7332,1.46,4.1,11111222 
NERRS,ioos:station:NOAA.NERRS:rkblhwq:1,2019-08-11T18:45:00Z,26.0257,-81.7332,1.31,4.3,11111222 
NERRS,ioos:station:NOAA.NERRS:rkblhwq:1,2019-08-11T19:45:00Z,26.0257,-81.7332,1.15,4.0,11111222 